Temp_Advection
nan nan nan nan nan nan nan nan nan nan nan nan nan nan nan nan nan nan nan nan nan nan nan nan nan nan nan nan nan nan nan nan
nan 0 0 0 0 0 0 -0 -0 -0 -0 -0 -0 -0 0 -0 0 0 0 -0 -0 0 0 -0 -0 -0 0 0 0 0 0 nan
nan -0 -0 -0 -0 0 -0 0 -0 -0 0 -0 -0 -0 -0 0 1 0 -0 -0 0 0 -0 -0 -0 0 0 0 0 0 0 nan
nan -1 -1 -1 -0 -0 -0 0 0 0 -0 -0 -0 -1 0 -0 -0 -0 -0 0 -0 -0 -0 -0 0 0 0 0 0 0 1 nan
nan -1 -1 -1 -0 -0 -0 -0 0 0 -0 -1 -1 -0 -0 -1 -1 -0 -0 -0 -0 -0 -1 -0 0 0 0 0 0 1 1 nan
nan -0 -0 0 -0 -1 -1 -0 -0 -0 -0 -1 -1 -0 -1 -1 -1 -1 -0 -0 -1 -1 0 0 1 0 -0 0 0 0 1 nan
nan 0 1 1 0 -0 -1 -1 -1 -1 -1 -1 -0 -1 -1 -1 -1 -0 0 -0 -1 -0 0 0 1 0 0 -0 0 0 1 nan
nan -0 0 0 -0 -0 -0 -0 -0 -0 -1 -1 -1 -1 -1 -1 -0 -0 -0 -1 -0 0 1 1 0 0 -0 0 1 1 1 nan
nan -0 -0 0 -0 -0 -0 -0 -1 -1 -1 -1 -1 -0 -0 0 -0 -0 -0 -0 -0 0 0 0 0 0 0 1 1 0 1 nan
nan 0 1 1 -0 -1 -0 -0 -1 -1 -1 -1 -0 0 0 -0 -0 -0 -0 0 1 0 0 0 0 1 1 1 1 0 0 nan
nan 0 0 0 0 0 0 -0 -1 0 0 1 1 1 0 0 -0 -1 -0 0 1 1 0 -0 -0 1 1 1 0 1 1 nan
nan -1 0 1 1 1 -0 -1 -0 1 2 1 0 -1 -2 -1 -1 -1 -0 1 2 1 0 0 -0 0 1 0 0 1 0 nan
nan 1 1 0 0 -1 -2 1 2 3 2 -2 -2 -1 -1 0 0 -0 0 2 1 0 1 -0 0 0 0 1 0 0 0 nan
nan 0 -2 -1 0 0 1 1 2 2 -2 -2 -0 0 0 0 1 0 1 2 0 0 1 0 -1 0 1 1 -0 0 1 nan
nan -1 -1 -0 -0 0 2 2 1 0 0 1 -0 0 0 1 1 0 0 1 0 1 2 1 -1 0 1 0 -0 1 1 nan
nan 0 -0 -0 -0 0 1 1 2 1 1 1 1 0 1 1 1 1 1 1 1 2 1 -0 -0 1 1 0 1 1 2 nan
nan -0 -1 -0 -0 0 1 1 1 1 1 1 1 1 1 1 2 0 0 1 1 1 1 0 1 1 1 1 2 2 2 nan
nan -1 -1 0 1 1 1 1 2 2 1 1 1 2 1 1 0 1 1 1 0 0 1 1 1 1 1 1 2 1 1 nan
nan nan nan nan nan nan nan nan nan nan nan nan nan nan nan nan nan nan nan nan nan nan nan nan nan nan nan nan nan nan nan nan
Wind_Speed
14 11 11 14 15 17 20 28 31 35 41 41 37 36 36 35 35 33 30 28 27 23 19 17 17 16 15 13 12 11 11 9
15 12 13 16 18 20 23 24 22 33 41 42 38 37 34 35 34 30 29 26 22 22 20 18 15 16 15 14 14 16 15 13
19 16 18 19 20 24 29 25 26 32 39 43 38 38 33 34 33 30 27 24 24 20 19 17 18 17 17 18 18 18 17 17
23 20 19 19 24 25 28 24 25 30 40 41 38 36 34 32 30 28 27 24 21 21 19 19 22 21 21 21 21 21 21 22
24 21 19 20 23 25 26 25 26 31 43 43 40 42 36 36 30 26 24 24 24 24 23 25 25 25 27 26 24 25 26 27
28 26 21 21 23 26 27 27 30 33 42 44 42 41 38 37 34 30 27 29 31 30 31 29 28 27 27 26 28 28 30 31
28 27 25 25 25 27 29 32 34 36 46 47 46 44 41 39 37 36 35 33 34 35 36 33 30 31 31 31 29 30 31 32
32 32 33 31 32 33 34 35 39 40 47 49 47 48 43 43 41 37 37 37 37 39 38 37 34 34 33 33 31 28 29 31
36 35 37 36 35 37 39 40 43 44 47 47 45 48 47 45 43 41 39 38 38 38 38 36 36 36 36 34 31 29 28 28
40 38 38 39 39 41 44 43 42 44 46 47 48 47 46 45 43 40 38 38 39 38 36 35 37 36 37 35 31 30 31 27
40 40 41 42 42 41 42 44 44 44 45 46 46 45 44 43 42 40 40 40 43 44 41 39 40 39 38 37 37 38 32 30
40 42 42 42 43 43 44 45 45 46 47 45 44 42 42 42 42 44 43 44 47 42 38 39 36 34 42 38 38 41 31 30
36 41 43 42 42 43 45 46 48 48 44 40 34 20 32 36 46 45 39 44 41 31 36 42 41 44 44 38 37 34 32 33
31 37 42 43 43 44 45 46 48 47 45 43 42 43 42 43 46 45 39 39 35 37 43 40 42 39 38 45 42 35 30 28
33 35 32 33 35 37 42 45 45 46 47 45 45 42 45 45 44 41 41 30 36 40 45 39 38 40 37 34 34 29 31 28
30 32 29 26 25 26 29 35 38 40 40 41 42 41 44 41 38 36 38 43 41 39 40 36 34 31 36 28 26 29 29 27
30 32 28 27 24 23 26 29 32 34 35 37 38 36 36 34 32 31 33 38 42 39 35 34 29 24 22 26 30 27 22 21
35 32 31 30 26 25 26 27 30 33 34 35 36 40 32 27 23 21 20 27 27 26 24 22 24 26 26 23 22 21 21 22
32 39 37 32 29 25 24 23 25 28 30 34 36 33 23 18 18 19 20 20 21 22 24 25 22 20 19 19 19 20 20 19
Wind_Direction
210 205 194 209 211 210 196 201 197 183 178 178 180 185 188 190 188 186 186 189 195 194 190 197 206 203 208 212 214 222 229 231
210 216 202 189 206 206 199 185 189 189 183 184 185 189 188 190 191 193 195 196 193 197 197 207 219 225 228 231 233 232 241 243
205 213 201 189 196 203 201 190 194 194 191 188 190 190 189 192 193 200 202 200 205 205 211 224 238 240 235 237 241 243 247 249
204 208 206 198 198 200 201 206 196 197 190 191 192 192 194 195 200 204 205 213 218 224 229 240 248 249 249 246 245 246 248 247
212 207 211 203 200 200 206 204 203 196 192 190 194 196 200 201 203 207 214 222 230 232 239 246 250 251 251 250 251 251 251 249
213 210 216 205 196 197 198 202 204 202 196 195 199 201 206 207 212 215 224 231 234 237 241 247 248 249 252 254 252 252 254 252
222 217 213 207 199 196 196 194 193 193 192 196 200 202 207 210 214 222 225 236 237 238 241 248 250 251 252 251 256 255 259 256
220 217 211 210 203 198 197 194 193 193 195 201 204 207 211 219 219 222 230 235 238 239 244 245 247 250 256 258 259 263 265 257
223 225 219 214 207 203 202 200 199 199 200 202 207 210 215 219 223 227 234 240 245 249 252 253 254 256 258 258 261 263 267 258
225 224 226 221 215 211 209 207 207 207 208 210 214 216 220 225 229 235 241 248 253 255 258 260 261 260 261 263 267 263 265 257
226 226 228 228 227 222 217 217 218 217 217 219 222 225 231 236 241 245 247 252 256 258 260 260 264 263 263 260 264 260 251 252
227 229 231 233 232 230 229 226 227 227 225 227 230 236 241 243 246 250 252 257 263 267 269 264 260 264 259 262 264 261 252 252
228 229 231 233 235 235 235 235 234 231 227 229 240 240 244 250 249 248 254 261 255 264 270 269 250 252 256 256 270 249 251 248
226 229 231 237 241 241 243 241 239 234 230 231 230 232 237 239 244 248 242 259 246 248 244 248 254 254 253 259 259 255 245 257
212 221 227 234 239 244 246 246 246 242 240 239 241 241 246 248 248 250 245 250 239 245 245 246 249 260 248 257 245 239 246 243
200 203 206 214 223 234 241 245 246 246 246 239 241 241 238 244 246 245 250 244 245 247 239 242 259 253 244 238 237 242 239 235
204 203 209 212 215 220 228 234 238 239 240 239 241 238 236 244 240 246 249 249 250 236 243 246 246 223 237 240 236 233 225 220
224 215 219 223 221 223 226 229 230 231 231 236 235 234 238 239 244 248 234 232 232 234 229 226 231 238 229 230 222 216 216 218
227 220 221 223 222 221 224 225 225 221 223 225 227 233 235 234 235 220 218 218 224 223 229 224 223 222 223 222 216 216 215 217
Height
1462 1462 1464 1466 1468 1471 1474 1477 1481 1486 1492 1498 1504 1510 1514 1520 1524 1528 1530 1534 1537 1539 1542 1544 1547 1548 1552 1555 1558 1559 1563 1563
1461 1461 1462 1465 1468 1470 1473 1477 1481 1486 1492 1498 1504 1508 1512 1518 1523 1527 1530 1534 1535 1537 1540 1544 1546 1548 1552 1554 1557 1557 1561 1562
1458 1459 1461 1463 1466 1470 1474 1476 1482 1486 1491 1497 1504 1509 1513 1517 1521 1525 1529 1532 1535 1536 1540 1542 1548 1549 1550 1553 1554 1556 1558 1560
1454 1456 1459 1462 1464 1467 1471 1475 1479 1485 1492 1499 1503 1509 1514 1517 1519 1523 1527 1530 1532 1536 1539 1541 1545 1547 1548 1550 1551 1552 1554 1555
1450 1453 1455 1458 1462 1466 1471 1475 1478 1484 1489 1496 1500 1505 1509 1512 1516 1521 1524 1528 1531 1533 1537 1539 1541 1542 1545 1546 1547 1549 1550 1550
1443 1447 1453 1457 1461 1464 1469 1474 1478 1484 1488 1493 1498 1502 1507 1511 1515 1517 1522 1526 1528 1529 1532 1534 1536 1538 1540 1541 1544 1543 1545 1545
1440 1446 1452 1456 1459 1463 1467 1470 1473 1478 1483 1489 1494 1498 1503 1508 1511 1514 1517 1521 1523 1524 1528 1529 1530 1533 1535 1536 1538 1539 1539 1540
1435 1439 1445 1452 1456 1460 1465 1468 1472 1476 1481 1485 1488 1493 1498 1502 1504 1508 1512 1515 1516 1518 1522 1525 1524 1526 1529 1531 1532 1533 1533 1534
1429 1433 1440 1445 1450 1455 1460 1464 1469 1473 1476 1480 1485 1490 1494 1497 1500 1503 1506 1509 1512 1515 1517 1519 1521 1522 1524 1525 1527 1526 1525 1526
1423 1429 1433 1439 1445 1448 1452 1458 1464 1468 1472 1476 1480 1484 1487 1489 1494 1498 1501 1504 1507 1510 1514 1516 1517 1517 1518 1519 1516 1518 1519 1520
1420 1426 1430 1434 1438 1443 1449 1454 1456 1461 1468 1472 1477 1482 1485 1489 1492 1494 1497 1499 1501 1504 1508 1510 1510 1511 1511 1511 1511 1511 1512 1513
1417 1422 1425 1429 1435 1440 1444 1448 1451 1455 1463 1471 1477 1482 1484 1486 1487 1488 1491 1494 1496 1499 1499 1499 1500 1501 1501 1503 1503 1504 1505 1507
1412 1417 1422 1426 1428 1433 1435 1439 1443 1449 1457 1466 1472 1473 1471 1475 1476 1478 1482 1480 1484 1492 1488 1490 1488 1493 1495 1497 1498 1497 1498 1499
1410 1415 1418 1421 1424 1427 1428 1432 1436 1442 1446 1450 1454 1458 1462 1463 1464 1468 1472 1473 1474 1475 1477 1481 1483 1484 1487 1488 1489 1490 1491 1494
1406 1410 1413 1416 1419 1421 1423 1427 1430 1434 1437 1443 1446 1452 1453 1455 1458 1462 1465 1467 1468 1469 1471 1474 1477 1478 1479 1480 1481 1484 1486 1488
1403 1405 1408 1411 1414 1417 1419 1422 1425 1428 1431 1437 1440 1444 1447 1450 1453 1455 1456 1457 1460 1462 1465 1469 1470 1470 1471 1474 1477 1480 1481 1483
1399 1402 1404 1406 1409 1412 1414 1416 1419 1422 1426 1430 1433 1438 1441 1445 1447 1450 1450 1452 1454 1456 1459 1462 1463 1465 1468 1471 1473 1474 1476 1479
1394 1398 1398 1401 1404 1407 1409 1411 1414 1417 1422 1426 1429 1433 1437 1440 1442 1444 1445 1447 1450 1452 1454 1457 1460 1462 1463 1466 1468 1470 1473 1475
1386 1390 1393 1397 1400 1403 1405 1409 1412 1415 1418 1422 1425 1429 1432 1435 1437 1439 1442 1444 1447 1450 1453 1455 1457 1459 1462 1465 1468 1470 1472 1474